Flag for Marshall Islands Weather past 2 weeks in Majuro, Marshall Islands

Now
87 °F

Cloudy.


Feels Like: 100 °F
Forecast: 82 / 85 °F
Wind: 10 mph from East

Location: Majuro Atoll

Current Time: Apr 25, 2015 at 2:13:32 PM

Latest Report: Apr 25, 2015 at 12:52 PM


Visibility: 15 mi

Pressure: 29.78 "Hg

Humidity: 77%

Dew point: 78 °F

Location of MajuroLocation

Historic Weather in Majuro — Graph

°F

Majuro temperature yesterday

Maximum temperature yesterday: 87 °F (at 1:55 PM)
Minimum temperature yesterday: 81 °F (at 11:51 PM)
Average temperature yesterday: 84 °F

Past Weeks' High & Low Weather Summary

 TemperatureHumidityPressure
High87 °F (Apr 24, 1:55 PM)95% (Apr 22, 11:51 PM)29.95 "Hg (Apr 22, 11:51 PM)
Low76 °F (Apr 16, 3:54 PM)74% (Apr 10, 5:51 PM)29.72 "Hg (Apr 20, 4:52 PM)
Average82 °F84%29.82 "Hg
* Reported Apr 10 12:52 PM — Apr 25 12:52 PM, Majuro, Weather by CustomWeather, © 2015

Note: Actual official high and low records may vary slightly from our data, if they occured in-between our weather recording intervals... More about our weather records

Advertising

Majuro weather history for previous 24 hours

 ConditionsComfort  
Time TempWeatherWind HumidityBarometerVisibility
12:52 PM
Sat, Apr 25
87 °FCloudy.10 mph77%29.78 "Hg15 mi
11:55 AM87 °FCloudy.12 mph77%29.82 "Hg15 mi
10:54 AM82 °FMore clouds than sun.7 mph86%29.84 "Hg15 mi
9:52 AM85 °FMore clouds than sun.8 mph80%29.85 "Hg15 mi
8:51 AM85 °FMore clouds than sun.6 mph81%29.84 "Hg15 mi
7:52 AM84 °FMore clouds than sun.7 mph82%29.82 "Hg15 mi
6:51 AM81 °FMostly cloudy.No wind88%29.80 "Hg15 mi
5:52 AM81 °FOvercast.2 mph87%29.77 "Hg15 mi
3:52 AM82 °FOvercast.3 mph88%29.75 "Hg15 mi
2:51 AM81 °FOvercast.No wind86%29.77 "Hg15 mi
1:52 AM81 °FMostly cloudy.No wind86%29.77 "Hg15 mi
12:52 AM82 °FOvercast.2 mph88%29.80 "Hg15 mi
11:51 PM
Fri, Apr 24
81 °FOvercast.No wind86%29.83 "Hg15 mi
10:51 PM82 °FOvercast.7 mph87%29.83 "Hg15 mi
9:54 PM82 °FOvercast.9 mph87%29.83 "Hg15 mi
8:51 PM82 °FOvercast.8 mph85%29.80 "Hg15 mi
7:51 PM82 °FOvercast.8 mph88%29.80 "Hg15 mi
6:50 PM83 °FCloudy.12 mph84%29.78 "Hg15 mi
5:52 PM84 °FMore clouds than sun.8 mph81%29.76 "Hg15 mi
4:50 PM84 °FMore clouds than sun.6 mph79%29.75 "Hg15 mi
3:53 PM86 °FBroken clouds.6 mph78%29.75 "Hg15 mi
2:55 PM87 °FBroken clouds.No wind77%29.75 "Hg15 mi
Weather by CustomWeather, © 2015

See weather overviewHow to use our weather pages